Wind_Speed
2 2 2 2 4 5 6 6 8 9 10 11 12 13 14 15 16 16 17 17 17 17 17 17 17 17 17 18 19 20 20 20 20 20 20 20 20 20 20 20 20 20 21
2 3 4 5 6 7 8 9 10 11 12 13 14 15 16 17 17 17 17 18 18 18 18 18 19 19 19 20 20 21 21 22 22 22 22 23 23 24 24 24 24 24 24
5 6 7 8 8 9 10 11 12 13 14 15 16 17 17 18 18 18 18 19 19 20 20 20 20 21 21 22 22 23 23 24 24 24 25 25 25 26 26 27 27 28 28
8 9 9 10 11 11 12 13 14 15 15 16 17 17 18 18 18 18 19 19 20 20 21 22 22 23 23 24 24 25 26 27 27 28 28 29 29 29 29 30 30 31 31
10 11 11 12 12 13 13 14 15 15 16 16 17 17 17 18 18 19 19 20 20 21 22 23 24 24 25 26 27 28 29 30 31 31 32 32 33 33 33 34 34 34 35
12 12 13 13 13 14 14 15 15 15 16 16 16 17 17 17 18 18 19 20 20 21 22 23 24 25 26 27 28 30 31 32 33 34 35 36 36 37 37 38 38 39 39
13 13 13 13 14 14 14 14 14 15 15 16 16 16 17 17 18 19 19 20 21 21 22 23 24 25 26 27 28 30 31 33 34 35 37 38 39 40 41 41 42 43 43
14 14 14 14 14 14 14 14 14 15 15 15 16 16 17 17 18 19 20 21 21 22 23 23 24 25 26 27 28 29 30 32 34 36 37 39 41 42 43 44 45 46 47
14 14 13 13 13 13 13 14 14 14 15 16 16 17 18 19 20 21 22 23 24 24 25 26 26 27 27 28 29 29 31 32 34 35 37 39 41 43 44 46 47 49 50
13 13 13 13 13 13 13 14 14 15 16 17 17 18 19 21 22 23 24 25 26 27 28 29 29 30 30 30 31 32 32 33 34 36 37 39 41 43 45 47 49 50 52
13 12 12 12 12 13 13 14 14 15 16 17 18 20 21 22 24 25 26 27 28 29 30 31 32 33 33 34 34 35 35 36 36 37 38 39 41 43 45 48 50 52 54
12 12 12 12 12 12 13 13 14 15 17 18 19 21 22 23 25 26 28 29 30 31 32 33 34 35 36 37 37 38 38 38 39 39 40 41 43 44 46 48 50 53 55
12 12 12 11 12 12 13 14 15 16 17 19 20 21 23 24 26 27 29 30 32 33 34 35 36 37 38 40 40 41 42 42 42 43 43 44 45 47 49 50 52 54 56
13 13 12 12 13 13 14 15 16 17 18 20 21 23 24 25 27 28 30 31 33 34 36 37 38 39 41 42 43 44 45 45 46 46 47 48 49 50 52 53 55 57 59
13 13 13 14 14 15 16 17 18 19 20 22 23 24 26 27 28 30 32 33 35 36 38 39 40 41 42 44 45 46 47 48 49 49 50 52 53 54 55 57 58 60 62
15 15 16 16 16 17 18 20 21 22 24 25 26 27 29 30 31 33 34 36 38 39 41 42 43 44 44 45 47 48 49 50 51 52 53 55 56 57 59 60 62 63 65
17 18 18 19 19 20 22 23 24 26 27 29 30 31 33 34 35 36 37 39 41 42 44 45 46 47 47 48 49 50 51 53 54 55 57 58 59 60 62 63 65 66 68
20 20 21 22 23 24 25 26 28 30 31 32 34 35 36 37 38 39 41 42 44 46 47 48 50 50 50 50 51 52 53 54 56 58 59 61 62 63 65 66 68 69 71
23 24 24 25 27 28 29 30 31 33 35 36 37 39 40 41 42 43 44 45 47 49 50 51 53 53 53 53 53 53 54 56 58 60 61 63 65 66 67 69 70 71 73
26 27 28 29 30 31 32 33 34 36 37 39 41 42 43 44 45 46 47 49 50 51 52 54 55 56 55 55 54 55 56 57 59 61 63 65 67 68 70 71 72 74 75
29 30 31 32 33 34 35 36 37 38 40 42 43 45 46 47 48 49 50 52 53 54 55 57 57 57 57 57 56 56 57 58 60 62 64 66 68 70 72 73 74 76 77
32 33 34 35 36 37 38 39 39 41 42 44 46 48 50 50 51 52 53 54 55 56 58 58 59 59 59 59 59 59 59 60 61 62 65 67 69 71 73 75 76 77 78
35 36 37 38 39 40 41 42 42 44 45 47 49 51 52 53 54 54 55 57 58 59 59 60 60 61 61 61 61 61 62 63 64 64 65 68 70 72 74 76 77 78 80
38 40 40 41 42 43 45 45 46 47 48 50 52 53 54 55 56 57 58 59 59 60 60 61 62 62 62 62 62 62 63 64 65 65 66 69 70 72 74 76 77 79 80
41 42 43 45 45 46 48 49 50 50 52 54 55 55 57 57 58 59 59 60 60 61 62 62 63 63 63 63 63 63 63 65 67 67 67 68 70 72 74 76 77 79 80
43 45 46 47 48 49 50 51 52 53 55 56 56 57 58 59 59 60 61 61 62 63 63 63 64 64 64 63 63 63 65 67 69 69 68 68 70 71 73 75 77 78 79
Wind_Direction
192 220 251 271 279 283 287 291 294 296 297 297 296 295 294 293 291 290 288 286 283 281 278 277 275 274 273 272 272 273 273 272 270 269 268 268 267 266 264 262 259 256 254
269 277 282 286 288 290 293 296 298 299 299 299 297 296 296 295 294 292 291 289 287 284 282 280 278 276 275 274 273 273 272 272 271 269 268 268 267 266 266 264 262 260 258
283 284 286 289 292 294 296 298 299 301 301 300 299 298 297 296 295 294 293 291 290 287 285 283 281 279 277 276 275 274 273 273 272 271 270 268 267 266 266 265 264 263 261
283 285 287 290 293 295 296 298 299 300 301 300 300 299 298 297 296 295 294 293 291 289 287 285 283 281 279 278 277 276 275 274 274 273 271 270 268 266 265 265 264 264 263
283 286 288 291 293 296 297 299 300 300 300 300 300 299 299 298 298 297 296 294 293 291 289 288 286 284 282 280 279 277 276 275 275 274 273 271 270 268 266 265 264 264 263
284 286 289 291 293 296 298 300 300 301 301 302 301 301 301 301 300 299 299 297 296 294 293 291 289 286 284 283 281 279 278 277 276 275 274 272 271 269 268 267 266 264 263
284 286 289 291 293 296 298 300 301 302 303 303 303 303 303 303 302 301 301 300 299 297 296 294 292 290 288 286 284 282 280 279 277 276 275 273 272 271 269 267 266 265 264
285 288 290 292 293 296 299 301 302 303 304 305 304 305 305 305 304 303 302 301 300 299 298 296 295 293 291 289 287 285 283 282 280 278 277 275 274 272 271 269 267 266 265
286 289 290 291 294 296 299 301 303 305 306 305 305 305 305 305 304 303 302 301 300 298 297 296 294 293 291 290 289 287 285 284 282 281 279 277 276 274 273 271 269 268 266
285 287 289 292 295 297 300 302 304 306 306 306 305 306 306 305 305 304 303 301 300 298 297 295 294 293 291 290 289 288 286 285 284 282 281 279 277 276 274 272 270 268 266
283 285 287 291 294 297 299 301 304 305 305 305 306 306 306 306 306 305 304 302 300 299 297 296 294 293 291 290 289 288 287 286 285 284 283 282 280 278 276 274 272 270 268
280 282 286 289 291 294 297 300 303 305 306 307 308 308 308 308 308 307 306 304 303 301 299 297 295 293 291 290 289 288 288 287 287 286 285 284 282 280 279 277 274 272 270
277 279 283 285 288 292 296 299 302 304 307 308 309 310 311 311 311 310 309 307 306 304 301 299 297 294 292 291 289 288 287 287 287 287 286 285 284 283 281 279 277 275 273
274 276 279 282 286 290 293 296 300 302 305 307 309 310 311 312 312 312 311 310 308 307 304 301 299 296 294 292 290 289 289 288 287 287 287 287 286 285 284 282 281 279 277
270 273 276 281 284 287 291 294 297 299 301 303 306 307 309 310 311 312 312 311 311 310 308 305 302 299 297 294 293 292 291 290 289 289 289 289 289 288 287 286 284 283 281
268 270 273 277 281 285 289 292 294 297 299 301 303 304 306 307 309 310 311 312 312 311 310 309 306 303 300 297 295 294 293 293 292 291 291 291 291 290 290 289 288 287 285
267 269 272 276 280 284 287 290 292 294 296 298 300 301 302 304 305 307 308 310 311 311 310 310 309 307 303 300 297 296 295 295 294 294 293 293 293 293 293 292 291 290 289
268 270 272 276 279 282 285 288 290 292 294 296 298 299 301 302 303 304 305 307 309 309 309 309 309 308 305 302 300 298 297 296 296 296 295 295 295 295 295 294 294 293 292
271 272 273 275 278 280 283 286 289 291 292 294 296 298 299 300 302 303 304 305 307 308 308 308 308 308 306 304 301 299 298 298 297 297 297 297 297 297 297 296 296 295 295
272 272 273 275 277 280 283 285 287 290 291 293 295 297 298 299 301 302 303 304 305 306 306 307 307 307 306 304 302 300 300 299 299 299 299 299 299 299 299 298 298 298 298
271 272 273 275 277 280 282 284 286 289 290 293 295 296 297 299 300 301 302 303 304 304 305 305 306 306 305 304 302 300 300 300 300 300 301 301 301 301 300 300 300 300 300
270 272 273 275 277 279 281 283 286 288 290 292 294 295 297 298 299 300 300 301 302 303 303 304 305 305 304 304 302 300 299 299 299 301 302 302 302 302 302 302 302 302 302
271 271 273 275 277 279 281 284 286 288 290 292 293 294 296 297 297 298 299 300 300 301 302 303 303 304 304 304 302 301 300 300 300 301 302 303 303 304 304 304 304 304 304
272 273 275 277 278 280 282 285 287 289 290 291 292 294 295 296 297 297 298 298 299 300 301 302 302 303 304 303 302 302 301 301 301 302 303 303 304 304 305 305 305 306 306
274 275 277 278 280 282 284 286 287 289 290 290 292 294 294 295 296 296 296 297 298 299 300 301 301 302 303 303 302 302 302 303 302 303 304 304 305 306 306 306 306 307 307
278 279 280 281 282 284 285 287 288 289 290 291 292 293 293 294 295 295 295 296 297 298 299 300 300 302 302 302 303 303 303 304 304 304 304 305 306 307 307 307 307 308 308
Height
5882 5882 5882 5882 5882 5881 5881 5880 5879 5879 5878 5877 5876 5876 5875 5874 5873 5873 5872 5871 5871 5870 5870 5869 5869 5869 5868 5868 5867 5866 5866 5867 5867 5868 5868 5868 5868 5869 5869 5870 5870 5871 5872
5882 5882 5882 5881 5881 5880 5879 5878 5878 5877 5876 5875 5874 5873 5872 5871 5870 5869 5868 5868 5867 5867 5866 5866 5866 5865 5865 5864 5864 5863 5863 5863 5863 5863 5864 5864 5864 5865 5865 5865 5866 5867 5867
5881 5881 5880 5880 5879 5878 5877 5877 5875 5874 5873 5872 5871 5870 5869 5868 5867 5866 5865 5864 5863 5862 5862 5862 5861 5861 5860 5860 5859 5859 5858 5858 5858 5858 5859 5859 5860 5860 5860 5861 5861 5862 5862
5880 5879 5879 5878 5877 5876 5875 5874 5873 5872 5871 5870 5868 5867 5866 5865 5863 5862 5861 5860 5859 5858 5857 5857 5856 5856 5855 5855 5854 5853 5853 5853 5852 5853 5853 5853 5854 5854 5855 5855 5855 5856 5857
5878 5878 5877 5876 5875 5874 5873 5871 5870 5869 5868 5867 5865 5864 5863 5861 5860 5859 5857 5856 5855 5854 5853 5852 5851 5850 5849 5849 5848 5848 5847 5847 5846 5846 5846 5846 5847 5848 5848 5849 5849 5850 5850
5876 5875 5874 5873 5872 5871 5870 5869 5867 5866 5865 5864 5862 5861 5860 5858 5857 5855 5854 5852 5851 5849 5848 5847 5846 5845 5844 5843 5842 5841 5840 5840 5839 5839 5839 5839 5839 5840 5840 5841 5842 5842 5843
5874 5873 5872 5870 5869 5868 5867 5866 5864 5863 5862 5861 5859 5858 5856 5855 5853 5852 5850 5848 5847 5845 5843 5842 5840 5839 5838 5836 5835 5834 5833 5833 5832 5831 5831 5831 5831 5831 5832 5832 5833 5833 5834
5871 5870 5869 5867 5866 5865 5864 5863 5861 5860 5859 5857 5856 5854 5853 5851 5850 5848 5846 5844 5842 5841 5839 5837 5835 5834 5832 5831 5829 5828 5826 5825 5824 5823 5823 5822 5822 5821 5822 5822 5823 5823 5824
5868 5867 5865 5864 5863 5862 5860 5859 5858 5857 5855 5854 5852 5851 5849 5847 5846 5844 5842 5840 5838 5836 5834 5832 5830 5828 5827 5825 5823 5821 5820 5818 5817 5816 5814 5813 5812 5812 5812 5812 5812 5813 5813
5864 5863 5862 5861 5860 5858 5857 5856 5854 5853 5852 5850 5848 5847 5845 5843 5841 5839 5837 5835 5833 5831 5829 5826 5824 5822 5820 5818 5816 5815 5813 5811 5809 5807 5806 5805 5803 5802 5802 5801 5801 5801 5802
5861 5860 5859 5858 5856 5855 5854 5852 5851 5850 5848 5846 5844 5842 5840 5838 5836 5834 5832 5829 5827 5825 5822 5820 5817 5815 5813 5811 5809 5807 5805 5803 5801 5799 5797 5796 5794 5792 5791 5790 5790 5789 5789
5858 5857 5855 5854 5853 5852 5850 5849 5848 5846 5844 5842 5840 5838 5836 5833 5831 5829 5826 5823 5821 5818 5815 5813 5810 5807 5805 5802 5800 5798 5795 5793 5791 5789 5787 5785 5783 5782 5780 5778 5777 5776 5776
5854 5853 5852 5851 5850 5848 5847 5845 5844 5842 5840 5838 5836 5834 5831 5828 5826 5823 5820 5817 5814 5811 5808 5805 5802 5799 5795 5793 5790 5787 5785 5782 5780 5778 5776 5774 5771 5769 5767 5765 5764 5762 5761
5851 5850 5849 5847 5846 5845 5843 5842 5840 5838 5836 5834 5831 5829 5826 5823 5820 5817 5814 5810 5807 5803 5800 5796 5793 5789 5786 5782 5779 5776 5773 5771 5768 5765 5763 5760 5758 5755 5753 5751 5748 5746 5744
5847 5846 5845 5843 5842 5840 5839 5837 5835 5833 5831 5829 5826 5823 5820 5817 5814 5811 5807 5803 5800 5796 5792 5788 5784 5780 5776 5772 5768 5765 5761 5758 5755 5752 5749 5746 5743 5740 5737 5734 5731 5729 5726
5843 5842 5840 5839 5837 5836 5834 5832 5830 5828 5826 5823 5820 5817 5814 5811 5807 5804 5800 5796 5792 5788 5783 5779 5775 5770 5766 5761 5757 5752 5748 5744 5741 5737 5734 5730 5727 5723 5720 5717 5713 5710 5706
5838 5837 5836 5834 5832 5830 5829 5827 5824 5822 5819 5817 5814 5811 5807 5803 5800 5796 5792 5787 5783 5779 5774 5769 5765 5760 5755 5750 5745 5740 5735 5731 5726 5722 5718 5714 5710 5706 5702 5698 5694 5690 5685
5833 5832 5831 5829 5827 5825 5823 5821 5818 5816 5813 5810 5807 5803 5799 5796 5792 5787 5783 5778 5774 5769 5764 5759 5754 5749 5743 5738 5733 5727 5722 5717 5711 5706 5702 5697 5693 5688 5684 5679 5674 5669 5664
5828 5826 5825 5823 5821 5819 5816 5814 5811 5809 5805 5802 5799 5795 5791 5787 5783 5778 5773 5769 5764 5758 5753 5748 5742 5737 5731 5726 5720 5714 5708 5703 5697 5691 5686 5680 5675 5670 5665 5659 5654 5648 5642
5821 5820 5818 5816 5814 5811 5809 5807 5804 5801 5797 5794 5790 5786 5782 5777 5773 5768 5763 5758 5753 5747 5742 5736 5730 5724 5718 5712 5707 5701 5695 5688 5682 5675 5669 5663 5657 5651 5644 5639 5632 5626 5619
5814 5812 5811 5809 5806 5804 5801 5798 5796 5792 5789 5785 5781 5776 5772 5767 5763 5758 5752 5747 5741 5736 5730 5724 5718 5711 5705 5699 5693 5687 5682 5675 5667 5660 5653 5646 5638 5631 5624 5617 5610 5603 5596
5806 5804 5802 5800 5798 5795 5793 5789 5787 5783 5780 5775 5771 5766 5761 5757 5752 5746 5741 5735 5729 5723 5717 5711 5705 5698 5692 5685 5678 5672 5666 5661 5655 5647 5637 5628 5620 5612 5604 5596 5588 5580 5571
5798 5795 5793 5791 5788 5786 5783 5780 5777 5773 5769 5765 5760 5755 5750 5745 5740 5735 5729 5723 5717 5711 5705 5698 5691 5684 5678 5671 5664 5657 5650 5644 5637 5632 5622 5612 5602 5592 5584 5575 5565 5556 5547
5789 5786 5784 5781 5779 5776 5772 5769 5766 5762 5759 5754 5748 5744 5738 5733 5727 5722 5716 5709 5704 5697 5691 5684 5678 5671 5663 5656 5649 5642 5634 5627 5620 5614 5606 5595 5585 5575 5565 5554 5544 5533 5523
5780 5777 5775 5771 5769 5765 5762 5758 5755 5751 5746 5741 5736 5731 5725 5720 5714 5709 5702 5696 5690 5684 5677 5670 5663 5656 5649 5641 5633 5626 5619 5610 5602 5595 5589 5579 5567 5555 5544 5533 5523 5511 5500
5771 5768 5765 5762 5758 5755 5751 5747 5743 5739 5734 5729 5724 5718 5712 5707 5701 5695 5688 5682 5676 5669 5662 5655 5648 5641 5634 5626 5618 5610 5602 5594 5585 5576 5570 5562 5552 5539 5525 5513 5501 5490 5478